Regional Weather Roundup
Issued by NWS

Home | Current Version | Previous Version | Graphics & Text | Print | Product List | Glossary On
Versions: 1 2 3 4 5 6 7 8 9 10 11 12 13 14 15 16 17 18 19 20 21 22 23 24 25 26 27 28 29 30 31 32 33 34 35 36 37 38 39 40 41 42 43 44 45 46 47 48 49 50
000
ASUS45 KPSR 181310
RWRAZ

ARIZONA HOURLY REGIONAL WEATHER ROUNDUP
NATIONAL WEATHER SERVICE PHOENIX AZ
600 AM MST SAT NOV 18 2017

NOTE: FAIR INDICATES FEW OR NO CLOUDS BELOW 12,000 FEET WITH NO
SIGNIFICANT WEATHER AND/OR OBSTRUCTIONS TO VISIBILITY.

AZZ001>003-036-181400-
NORTHWEST ARIZONA

CITY           SKY/WX    TMP DP  RH WIND       PRES   REMARKS
BULLHEAD CITY  CLEAR     57  21  24 N25G35    30.22R
KINGMAN        CLEAR     38  20  48 E12       30.26R WCI  30
$$

AZZ004>008-015-016-018-181400-
NORTH CENTRAL ARIZONA

CITY           SKY/WX    TMP DP  RH WIND       PRES   REMARKS
GRAND CANYON   PTCLDY    29  12  49 NE8       30.31R WCI  21
WILLIAMS       CLEAR     27  25  93 SE9       30.27S WCI  17
PRESCOTT       CLEAR     36  29  75 CALM      30.25R
FLAGSTAFF      PTCLDY    28  17  63 E13       30.30R WCI  17
PAYSON           N/A     41  27  56 N7        30.25R
PAGE           PTCLDY    35  14  42 SW3       30.36R
$$

AZZ009>014-017-181400-
NORTHEAST ARIZONA

CITY           SKY/WX    TMP DP  RH WIND       PRES   REMARKS
WINSLOW        CLEAR     35  24  64 E6        30.33R WCI  30
SAINT JOHNS    CLEAR     35  26  69 W3        30.29R
WINDOW ROCK    CLEAR     24  12  60 N8        30.30R WCI  15
SHOW LOW       CLEAR     30  23  74 NE3       30.32R
$$

AZZ540-542>544-546-548-181400-
GREATER PHOENIX AREA

CITY           SKY/WX    TMP DP  RH WIND       PRES   REMARKS
PHOENIX        CLEAR     58  44  60 SW3       30.07R
BUCKEYE        CLEAR     54  36  50 N7        30.08S
LUKE AFB       CLEAR     55  40  57 N6        30.06R
DEER VALLEY    CLEAR     61  39  44 NE12      30.08R
SCOTTSDALE     CLEAR     65  39  38 NE13G21   30.09R
MESA-GATEWAY   CLEAR     52  34  50 E6        30.08R
CHANDLER       CLEAR     55  41  58 CALM      30.07
$$

AZZ539-553-181400-
SOUTHWEST MARICOPA COUNTY AND PINAL COUNTY

CITY           SKY/WX    TMP DP  RH WIND       PRES   REMARKS
CASA GRANDE    NOT AVBL
$$

AZZ503-504-507>509-181400-
SOUTHEAST ARIZONA

CITY           SKY/WX    TMP DP  RH WIND       PRES   REMARKS
TUCSON         CLEAR     53  33  46 SE8       30.12R
DAVIS-MONTHAN  CLEAR     52  31  46 SE7       30.10R
RYAN FIELD     CLEAR     52  34  50 E5        30.11
NOGALES        CLEAR     47  32  56 CALM      30.14S
SIERRA VISTA   CLEAR     50  35  55 W3        30.18R
DOUGLAS        CLEAR     46  30  53 NW5       30.16R
SAFFORD        CLEAR     54  35  48 NW6       30.11R
$$

AZZ532-181400-
SOUTHWEST ARIZONA

CITY           SKY/WX    TMP DP  RH WIND       PRES   REMARKS
YUMA           CLEAR     66  24  20 N14       30.07R
$$

CAZ041-043-047-048-061-525>527-560>570-181400-
SOUTHERN CALIFORNIA

CITY           SKY/WX    TMP DP  RH WIND       PRES   REMARKS
DOWNTOWN L.A.  CLEAR     56  53  90 CALM      30.10S
L.A. AIRPORT   PTCLDY    56  54  93 CALM      30.11S
SAN DIEGO      PTCLDY    57  52  83 N3        30.12S
BURBANK        CLEAR     53  49  86 CALM      30.11S
ONTARIO        CLEAR     55  53  93 CALM      30.11S
RIVERSIDE      CLEAR     55  54  96 E3        30.12S
PALM SPRINGS   CLEAR     68  26  20 NW8       30.13R
EL CENTRO NAS  CLEAR     58  44  60 CALM      30.10R
IMPERIAL       CLEAR     57  46  66 CALM      30.07R
BLYTHE         CLEAR     63  15  15 N17G25    30.13R
NEEDLES        CLEAR     58  23  26 N18G26    30.22R
$$

NVZ020-UTZ003-181400-
SOUTHERN NEVADA-UTAH

CITY           SKY/WX    TMP DP  RH WIND       PRES   REMARKS
LAS VEGAS      CLEAR     49  16  26 N13       30.31R
SALT LAKE CITY PTCLDY    31  22  69 SE8       30.43R WCI  23
$$

NMZ009-TXZ055-181400-
NEW MEXICO-WEST TEXAS

CITY           SKY/WX    TMP DP  RH WIND       PRES   REMARKS
ALBUQUERQUE    CLOUDY    38  13  35 N16G22    30.26R WCI  29
EL PASO        PTCLDY    62  34  35 NW15      30.08R
$$


........................KEY........................
SKY/WX - SKY CONDITION/WEATHER
TMP    - TEMPERATURE IN FAHRENHEIT
DP     - DEW POINT IN FAHRENHEIT
RH     - RELATIVE HUMIDITY IN PERCENT
WIND   - DIRECTION AND SPEED IN MILES PER HOUR (MPH)
VRB    - VARIABLE WIND DIRECTION
PRES   - MEAN SEA LEVEL PRESSURE IN INCHES OF MERCURY
         F - FALLING PRESSURE   R - RISING PRESSURE
         S - STEADY PRESSURE
VSB    - VISIBILITY IN MILES
HX     - HEAT INDEX IN FAHRENHEIT
WCI    - WIND CHILL INDEX IN FAHRENHEIT
TC     - TEMPERATURE IN CELSIUS WHICH IS ALSO KNOWN AS
         TEMPERATURE IN CENTIGRADE
AFB    - AIR FORCE BASE
         LUKE AFB IS LUKE AIR FORCE BASE
         DAVIS-MONTHAN IS DAVIS-MONTHAN AIR FORCE BASE
NAS    - NAVAL AIR STATION
         EL CENTRO NAS IS EL CENTRO NAVAL AIR STATION
N/A    - NOT AVAILABLE




USA.gov is the U.S. government's official web portal to all federal, state and local government web resources and services.